• In Österreich
  • Länderverzeichnis
  • Für 7 Tage
  • Wassertemperatur
  • Satellitenkarten
  • Wetterkarte
  • News
  • Widgets
  • user-avatar
    Anmelden

    Stündliche Wetter Ząbki

    Heute, 20 Juli, Freitag

    Zeit Temperatur Niederschläge Wind Luftdruck Luftfeuchtigkeit
    00:00 +19°C° 0 mm 4 m/S 749 mmHg 91%
    01:00 +19°C° 0 mm 3 m/S 749 mmHg 93%
    02:00 +18°C° 0 mm 3 m/S 749 mmHg 94%
    03:00 +18°C° 0 mm 3 m/S 749 mmHg 95%
    04:00 +18°C° 0 mm 3 m/S 749 mmHg 95%
    05:00 +19°C° 0 mm 3 m/S 750 mmHg 92%
    06:00 +20°C° 0 mm 4 m/S 750 mmHg 88%
    07:00 +21°C° 0 mm 3 m/S 750 mmHg 83%
    08:00 +23°C° 0,4 mm 4 m/S 750 mmHg 78%
    09:00 +25°C° 0,4 mm 4 m/S 750 mmHg 73%
    10:00 +26°C° 0,4 mm 5 m/S 750 mmHg 67%
    11:00 +27°C° 0,3 mm 5 m/S 750 mmHg 63%
    12:00 +28°C° 0,3 mm 5 m/S 749 mmHg 59%
    13:00 +28°C° 0 mm 4 m/S 749 mmHg 55%
    14:00 +28°C° 0,2 mm 4 m/S 749 mmHg 56%
    15:00 +28°C° 0,2 mm 5 m/S 749 mmHg 57%
    16:00 +28°C° 0,2 mm 5 m/S 749 mmHg 57%
    17:00 +27°C° 0,2 mm 4 m/S 749 mmHg 64%
    18:00 +25°C° 0,2 mm 4 m/S 749 mmHg 70%
    19:00 +24°C° 0,2 mm 3 m/S 749 mmHg 77%
    20:00 +22°C° 0 mm 3 m/S 750 mmHg 80%
    21:00 +21°C° 0 mm 3 m/S 750 mmHg 84%
    22:00 +20°C° 0 mm 2 m/S 750 mmHg 87%
    23:00 +19°C° 0 mm 2 m/S 750 mmHg 89%

    Morgen, 21 Juli, Samstag

    Zeit Temperatur Niederschläge Wind Luftdruck Luftfeuchtigkeit
    00:00 +19°C° 0 mm 2 m/S 750 mmHg 91%
    01:00 +18°C° 0 mm 2 m/S 750 mmHg 93%
    02:00 +18°C° 0 mm 2 m/S 750 mmHg 94%
    03:00 +17°C° 0 mm 2 m/S 750 mmHg 94%
    04:00 +17°C° 0 mm 2 m/S 750 mmHg 95%
    05:00 +18°C° 0 mm 2 m/S 751 mmHg 88%
    06:00 +19°C° 0 mm 2 m/S 751 mmHg 82%
    07:00 +21°C° 0 mm 2 m/S 751 mmHg 76%
    08:00 +22°C° 0 mm 3 m/S 751 mmHg 69%
    09:00 +24°C° 0 mm 3 m/S 751 mmHg 62%
    10:00 +26°C° 0 mm 3 m/S 751 mmHg 55%
    11:00 +26°C° 0 mm 4 m/S 751 mmHg 53%
    12:00 +27°C° 0 mm 4 m/S 751 mmHg 50%
    13:00 +27°C° 0 mm 4 m/S 750 mmHg 48%
    14:00 +27°C° 0 mm 4 m/S 750 mmHg 48%
    15:00 +27°C° 0 mm 3 m/S 750 mmHg 48%
    16:00 +27°C° 0 mm 3 m/S 750 mmHg 48%
    17:00 +26°C° 0 mm 3 m/S 750 mmHg 54%
    18:00 +25°C° 0 mm 2 m/S 750 mmHg 59%
    19:00 +23°C° 0 mm 2 m/S 750 mmHg 65%
    20:00 +22°C° 0 mm 1 m/S 750 mmHg 66%
    21:00 +21°C° 0 mm 1 m/S 750 mmHg 68%
    22:00 +20°C° 0 mm 1 m/S 750 mmHg 70%
    23:00 +20°C° 0 mm 1 m/S 750 mmHg 72%

    übermorgen, 22 Juli, Sonntag

    Zeit Temperatur Niederschläge Wind Luftdruck Luftfeuchtigkeit
    00:00 +19°C° 0 mm 1 m/S 750 mmHg 74%
    01:00 +19°C° 0 mm 1 m/S 750 mmHg 76%
    02:00 +18°C° 0 mm 1 m/S 750 mmHg 77%
    03:00 +18°C° 0 mm 1 m/S 750 mmHg 79%
    04:00 +18°C° 0 mm 1 m/S 750 mmHg 81%
    05:00 +19°C° 0 mm 1 m/S 750 mmHg 76%
    06:00 +21°C° 0 mm 1 m/S 750 mmHg 71%
    07:00 +23°C° 0 mm 1 m/S 751 mmHg 67%
    08:00 +24°C° 0 mm 1 m/S 750 mmHg 62%
    09:00 +26°C° 0 mm 1 m/S 750 mmHg 57%
    10:00 +27°C° 0 mm 2 m/S 750 mmHg 52%
    11:00 +28°C° 0 mm 2 m/S 750 mmHg 50%
    12:00 +28°C° 0 mm 2 m/S 750 mmHg 47%
    13:00 +29°C° 0 mm 2 m/S 749 mmHg 45%
    14:00 +29°C° 0 mm 2 m/S 749 mmHg 45%
    15:00 +29°C° 0 mm 2 m/S 749 mmHg 45%
    16:00 +29°C° 0 mm 2 m/S 749 mmHg 46%
    17:00 +28°C° 0 mm 2 m/S 749 mmHg 52%
    18:00 +26°C° 0 mm 2 m/S 749 mmHg 58%
    19:00 +25°C° 0 mm 2 m/S 749 mmHg 63%
    20:00 +24°C° 0 mm 2 m/S 749 mmHg 68%
    21:00 +23°C° 0 mm 2 m/S 750 mmHg 72%
    22:00 +21°C° 0 mm 2 m/S 750 mmHg 76%
    23:00 +20°C° 0 mm 2 m/S 750 mmHg 80%

    23 Juli, Montag

    Zeit Temperatur Niederschläge Wind Luftdruck Luftfeuchtigkeit
    00:00 +20°C° 0 mm 2 m/S 750 mmHg 83%
    01:00 +19°C° 0 mm 2 m/S 750 mmHg 87%
    02:00 +19°C° 0 mm 2 m/S 750 mmHg 88%
    03:00 +18°C° 0 mm 2 m/S 750 mmHg 90%
    04:00 +18°C° 0 mm 2 m/S 750 mmHg 92%
    05:00 +19°C° 0 mm 2 m/S 750 mmHg 86%
    06:00 +20°C° 0 mm 2 m/S 750 mmHg 80%
    07:00 +22°C° 0 mm 3 m/S 750 mmHg 74%
    08:00 +24°C° 0 mm 3 m/S 750 mmHg 67%
    09:00 +26°C° 0 mm 3 m/S 750 mmHg 61%
    10:00 +27°C° 0 mm 3 m/S 750 mmHg 54%
    11:00 +28°C° 0 mm 4 m/S 750 mmHg 51%
    12:00 +29°C° 0 mm 4 m/S 749 mmHg 49%
    13:00 +29°C° 0 mm 4 m/S 749 mmHg 46%
    14:00 +29°C° 0 mm 4 m/S 749 mmHg 47%
    15:00 +29°C° 0 mm 4 m/S 749 mmHg 48%
    16:00 +29°C° 0 mm 4 m/S 749 mmHg 49%
    17:00 +27°C° 0 mm 4 m/S 749 mmHg 55%
    18:00 +26°C° 0 mm 4 m/S 749 mmHg 62%
    19:00 +25°C° 0 mm 3 m/S 750 mmHg 68%
    20:00 +22°C° 0 mm 3 m/S 750 mmHg 73%
    21:00 +21°C° 0 mm 3 m/S 750 mmHg 77%
    22:00 +20°C° 0 mm 3 m/S 750 mmHg 81%
    23:00 +19°C° 0 mm 3 m/S 750 mmHg 83%

    24 Juli, Dienstag

    Zeit Temperatur Niederschläge Wind Luftdruck Luftfeuchtigkeit
    00:00 +19°C° 0 mm 2 m/S 750 mmHg 85%
    01:00 +18°C° 0 mm 2 m/S 750 mmHg 87%
    02:00 +17°C° 0 mm 2 m/S 750 mmHg 88%
    03:00 +17°C° 0 mm 2 m/S 750 mmHg 89%
    04:00 +17°C° 0 mm 2 m/S 750 mmHg 90%
    05:00 +18°C° 0 mm 2 m/S 751 mmHg 84%
    06:00 +19°C° 0 mm 3 m/S 751 mmHg 79%
    07:00 +21°C° 0 mm 3 m/S 751 mmHg 73%
    08:00 +22°C° 0 mm 3 m/S 751 mmHg 66%
    09:00 +25°C° 0 mm 4 m/S 751 mmHg 60%
    10:00 +27°C° 0 mm 4 m/S 751 mmHg 54%
    11:00 +27°C° 0 mm 4 m/S 751 mmHg 52%
    12:00 +28°C° 0 mm 4 m/S 750 mmHg 50%
    13:00 +28°C° 0 mm 4 m/S 750 mmHg 48%
    14:00 +28°C° 0 mm 4 m/S 750 mmHg 49%
    15:00 +28°C° 0 mm 4 m/S 750 mmHg 51%
    16:00 +28°C° 0 mm 4 m/S 750 mmHg 52%
    17:00 +26°C° 0 mm 4 m/S 750 mmHg 58%
    18:00 +25°C° 0 mm 3 m/S 750 mmHg 64%
    19:00 +24°C° 0 mm 3 m/S 750 mmHg 70%
    20:00 +22°C° 0 mm 3 m/S 750 mmHg 74%
    21:00 +21°C° 0 mm 3 m/S 750 mmHg 78%
    22:00 +20°C° 0 mm 3 m/S 750 mmHg 82%
    23:00 +20°C° 0,3 mm 3 m/S 750 mmHg 85%

    25 Juli, Mittwoch

    Zeit Temperatur Niederschläge Wind Luftdruck Luftfeuchtigkeit
    00:00 +19°C° 0,3 mm 3 m/S 750 mmHg 87%
    01:00 +19°C° 0,3 mm 3 m/S 750 mmHg 89%
    02:00 +18°C° 0,1 mm 3 m/S 750 mmHg 91%
    03:00 +18°C° 0,1 mm 3 m/S 750 mmHg 92%
    04:00 +18°C° 0,1 mm 3 m/S 750 mmHg 93%
    05:00 +19°C° 0,2 mm 3 m/S 750 mmHg 90%
    06:00 +20°C° 0,2 mm 3 m/S 751 mmHg 88%
    07:00 +21°C° 0,2 mm 3 m/S 751 mmHg 85%
    08:00 +23°C° 0,1 mm 4 m/S 751 mmHg 78%
    09:00 +26°C° 0,1 mm 4 m/S 751 mmHg 71%
    10:00 +28°C° 0,1 mm 4 m/S 751 mmHg 64%
    11:00 +29°C° 0,2 mm 4 m/S 750 mmHg 61%
    12:00 +29°C° 0,2 mm 4 m/S 750 mmHg 58%
    13:00 +30°C° 0,2 mm 4 m/S 750 mmHg 55%
    14:00 +30°C° 0,2 mm 4 m/S 750 mmHg 55%
    15:00 +30°C° 0,2 mm 4 m/S 750 mmHg 55%
    16:00 +30°C° 0,2 mm 4 m/S 750 mmHg 55%
    17:00 +29°C° 0,3 mm 4 m/S 750 mmHg 62%
    18:00 +27°C° 0,3 mm 4 m/S 750 mmHg 68%
    19:00 +26°C° 0,3 mm 4 m/S 750 mmHg 75%
    20:00 +25°C° 0,1 mm 3 m/S 750 mmHg 80%
    21:00 +24°C° 0,1 mm 3 m/S 750 mmHg 84%
    22:00 +22°C° 0,1 mm 3 m/S 750 mmHg 89%
    23:00 +21°C° 0 mm 3 m/S 750 mmHg 91%
    Mehr zeigen